Regional Weather Roundup
Issued by NWS Charleston, SC

Current Version | Previous Version | Graphics & Text | Print | Product List | Glossary On
Versions: 1 2 3 4 5 6 7 8 9 10 11 12 13 14 15 16 17 18 19 20 21 22 23 24 25 26 27 28 29 30 31 32 33 34 35 36 37 38 39 40 41 42 43 44 45 46 47 48 49 50
000
ASUS42 KCHS 190710
RWRCHS
REGIONAL WEATHER ROUNDUP
NATIONAL WEATHER SERVICE CHARLESTON SC
300 AM EDT SAT APR 19 2014

NOTE: "FAIR" INDICATES FEW OR NO CLOUDS BELOW 12,000 FEET WITH NO
SIGNIFICANT WEATHER AND/OR OBSTRUCTIONS TO VISIBILITY.

NOT ALL STATIONS ARE QUALITY CONTROLLED BY THE NATIONAL
WEATHER SERVICE. USE DATA WITH CAUTION...ESPECIALLY
DEWPOINT OBSERVATIONS.

SCZ027-030-031-034>040-042>050-190800-
...SOUTH CAROLINA...

CITY           SKY/WX    TMP DP  RH WIND       PRES   REMARKS
N CHARLESTON   LGT RAIN  59  56  89 E14G22    29.94F FOG
WATERFRONT PRK   N/A     59 N/A N/A NE106       N/A
FORT JOHNSON   NOT AVBL
MOUNT PLEASANT HVY RAIN N/A N/A N/A NE6       29.96F
JOHNS ISLAND   RAIN      59  59 100 NE15G26   29.93F
PINOPOLIS      NOT AVBL
MONCKS CORNER  LGT RAIN  57  57 100 E10G20    29.96F
SUMMERVILLE    NOT AVBL
BEAUFORT MCAS  CLOUDY    60  58  92 E10       29.93F
BEAUFORT ARPT  DRIZZLE   61  61 100 NE10      29.92F
HILTON HEAD IS NOT AVBL
GEORGETOWN     NOT AVBL
WALTERBORO     DRIZZLE   55 N/A N/A NE8       29.97S
ORANGEBURG     LGT RAIN  54  51  90 NE10      29.99F
BARNWELL       LGT RAIN  54  52  94 NE13G18   29.99F
AIKEN          RAIN      52  52 100 N15G24    30.04F
MANNING        CLOUDY    55 N/A N/A NE6       29.99F
KINGSTREE      NOT AVBL
COLUMBIA       LGT RAIN  53  51  93 N8        30.04F FOG
SUMTER         LGT RAIN  52  51  96 N10       30.01F
FLORENCE       LGT RAIN  54  52  93 E15G28    30.00F FOG
MYRTLE BEACH   CLOUDY    55  54  94 NE14G21   30.00F
N MYRTLE BEACH LGT RAIN  54  52  93 NE15G25   30.02F

$$

GAZ063-065-086>088-099>101-113>116-118-119-134-136>141-150-190800-
...GEORGIA...

CITY           SKY/WX    TMP DP  RH WIND       PRES   REMARKS
SAVANNAH ARPT  LGT RAIN  61  57  88 N8        29.92F FOG
HUNTER AAF     CLOUDY    61  61 100 NE5       29.89F
FORT STEWART   DRIZZLE   59  59 100 N5        29.89F
STATESBORO     NOT AVBL
SYLVANIA       CLOUDY    57  55  91 NE9       29.96F
CLAXTON        CLOUDY   N/A N/A N/A N6        29.94F
THOMSON        CLOUDY    50  50 100 NE12      30.06F
AUGUSTA-BUSH   LGT RAIN  53  50  89 N12       30.01F FOG
AUGUSTA-DANIEL LGT RAIN  53  51  93 N9        30.02F FOG
SWAINSBORO     CLOUDY    52  52 100 N8        29.98S FOG
VIDALIA        CLOUDY    54  54 100 NE10G16   29.97R FOG
ALMA           CLOUDY    55  52  89 N8        29.91F FOG
WAYCROSS       NOT AVBL
JESUP          CLOUDY    55  55 100 N3        29.91F
BRUNSWICK      CLOUDY    63  63 100 CALM      29.90F VSB 3/4
SAINT SIMONS   LGT RAIN  62  62 100 CALM      29.89F FOG

$$

SCZ027-028-034-036>038-045-046-048>050-GAZ119-141-190800-
...LAKE AND SUPPLEMENTAL COASTAL OBSERVATIONS...

STATION/POSITION TIME  TEMP    WIND        PRES    WAVE   SWELL
                       AIR SEA DIR/SP/G            HT/PER HT/PER/DIR
                 (UTC) (F)     (DEG/KT/KT) (MB)    (FT/S) (FT/S/D)
UPR LAKE MARION  NOT AVBL
WINYAH BAY       0600   57      40/ 25     1016.0S
LAKE MURRAY      0600   51      10/  4/  7 1017.6F
ACE BASIN NERRS  0600   59      50/  5     1014.0S
FORT PULASKI     0700   62 59   30/ 11/ 14 1012.8F
SAPELO ISLAND    0600   63      10/  5     1012.0F

$$

ANZ835-935-AMZ111-154-330-350-352-354-374-450-454-472-190800-
...C-MAN AND BUOY OBSERVATIONS...

STATION/POSITION TIME  TEMP    WIND        PRES    WAVE   SWELL
                       AIR SEA DIR/SP/G            HT/PER HT/PER/DIR
                 (UTC) (F)     (DEG/KT/KT) (MB)    (FT/S) (FT/S/D)
FOLLY BEACH CMAN 0600   59      50/ 25/ 29 1014.9F
BUOY 41004       NOT AVBL
BUOY 41008       0700   65 65  130/  4/  6 1012.1F   6/ 7   5/ 90/ 7
5E ST. MARYS GA  0700      64                N/A     4/ 7   2/ 80/11
FRYING PAN BUOY  0700   68 65  110/ 19/ 25 1013.7F   9/ 7
BUOY 41025       NOT AVBL
CAPE LOOKOUT NC  0600   55      30/ 23/ 27 1019.5F
BUOY 41002       NOT AVBL
BUOY 41010       0700   76 76  160/ 21/ 25 1013.1F   8/ 6   3/ 60/11
BUOY 41012       NOT AVBL
ST AUGUSTINE FL  0700   65     190/  6/  6 1012.6F
CAPERS NEARSHORE NOT AVBL
FRIPP NEARSHORE  0600   61      80/ 19/ 23   N/A


$$



USA.gov is the U.S. government's official web portal to all federal, state and local government web resources and services.